Year,Month,Day,Hour,Minute,Value (Times are PST for windgust in km/hr)
2020,07,09,00,00,3.20
2020,07,09,00,01,3.20
2020,07,09,00,02,1.60
2020,07,09,00,03,1.60
2020,07,09,03,40,4.80
2020,07,09,03,41,4.80
2020,07,09,03,42,1.60
2020,07,09,03,46,1.60
2020,07,09,03,47,3.20
2020,07,09,03,48,1.60
2020,07,09,03,56,3.20
2020,07,09,03,57,3.20
2020,07,09,03,58,3.20
2020,07,09,03,59,1.60
2020,07,09,04,32,1.60
2020,07,09,04,33,8.10
2020,07,09,04,34,6.40
2020,07,09,04,35,1.60
2020,07,09,04,36,3.20
2020,07,09,04,37,3.20
2020,07,09,04,38,3.20
2020,07,09,04,39,3.20
2020,07,09,04,40,1.60
2020,07,09,04,57,1.60
2020,07,09,04,58,1.60
2020,07,09,07,22,3.20
2020,07,09,07,23,3.20
2020,07,09,07,24,6.40
2020,07,09,07,25,3.20
2020,07,09,07,26,6.40
2020,07,09,07,27,4.80
2020,07,09,07,28,6.40
2020,07,09,07,29,3.20
2020,07,09,07,30,6.40
2020,07,09,07,31,3.20
2020,07,09,07,32,3.20
2020,07,09,07,33,6.40
2020,07,09,07,34,6.40
2020,07,09,07,35,6.40
2020,07,09,07,36,4.80
2020,07,09,07,37,4.80
2020,07,09,07,38,6.40
2020,07,09,07,39,6.40
2020,07,09,07,40,4.80
2020,07,09,07,41,4.80
2020,07,09,07,42,6.40
2020,07,09,07,43,8.10
2020,07,09,07,44,6.40
2020,07,09,07,45,3.20
2020,07,09,07,46,6.40
2020,07,09,07,47,6.40
2020,07,09,07,48,6.40
2020,07,09,07,49,1.60
2020,07,09,07,50,6.40
2020,07,09,07,51,3.20
2020,07,09,07,52,6.40
2020,07,09,07,55,3.20
2020,07,09,07,56,1.60
2020,07,09,07,57,4.80
2020,07,09,07,58,4.80
2020,07,09,07,59,4.80
2020,07,09,08,00,9.60
2020,07,09,08,01,8.10
2020,07,09,08,02,4.80
2020,07,09,08,03,1.60
2020,07,09,08,09,6.40
2020,07,09,08,10,6.40
2020,07,09,08,11,4.80
2020,07,09,08,12,4.80
2020,07,09,08,13,1.60
2020,07,09,08,14,1.60
2020,07,09,08,15,1.60
2020,07,09,08,16,4.80
2020,07,09,08,17,4.80
2020,07,09,08,18,3.20
2020,07,09,08,20,4.80
2020,07,09,08,21,4.80
2020,07,09,08,22,6.40
2020,07,09,08,23,4.80
2020,07,09,08,24,3.20
2020,07,09,08,25,6.40
2020,07,09,08,26,8.10
2020,07,09,08,27,6.40
2020,07,09,08,28,6.40
2020,07,09,08,29,3.20
2020,07,09,08,30,6.40
2020,07,09,08,31,1.60
2020,07,09,08,32,3.20
2020,07,09,08,38,4.80
2020,07,09,08,39,4.80
2020,07,09,08,40,6.40
2020,07,09,08,41,6.40
2020,07,09,08,42,6.40
2020,07,09,08,43,6.40
2020,07,09,08,44,4.80
2020,07,09,08,45,3.20
2020,07,09,08,46,1.60
2020,07,09,08,47,4.80
2020,07,09,08,48,4.80
2020,07,09,08,49,4.80
2020,07,09,08,50,3.20
2020,07,09,08,51,3.20
2020,07,09,08,52,3.20
2020,07,09,08,53,1.60
2020,07,09,08,55,8.10
2020,07,09,08,56,8.10
2020,07,09,08,57,4.80
2020,07,09,08,58,3.20
2020,07,09,08,59,3.20
2020,07,09,09,00,1.60
2020,07,09,09,01,1.60
2020,07,09,09,09,6.40
2020,07,09,09,10,11.30
2020,07,09,09,11,4.80
2020,07,09,09,12,6.40
2020,07,09,09,13,4.80
2020,07,09,09,14,8.10
2020,07,09,09,15,4.80
2020,07,09,09,16,3.20
2020,07,09,09,17,1.60
2020,07,09,09,18,4.80
2020,07,09,09,19,12.90
2020,07,09,09,20,8.10
2020,07,09,09,21,8.10
2020,07,09,09,22,4.80
2020,07,09,09,23,3.20
2020,07,09,09,24,3.20
2020,07,09,09,25,9.60
2020,07,09,09,26,11.30
2020,07,09,09,27,12.90
2020,07,09,09,28,8.10
2020,07,09,09,29,4.80
2020,07,09,09,30,14.50
2020,07,09,09,31,12.90
2020,07,09,09,32,6.40
2020,07,09,09,33,6.40
2020,07,09,09,34,19.30
2020,07,09,09,35,8.10
2020,07,09,09,36,11.30
2020,07,09,09,37,14.50
2020,07,09,09,38,8.10
2020,07,09,09,39,8.10
2020,07,09,09,40,4.80
2020,07,09,09,41,8.10
2020,07,09,09,42,6.40
2020,07,09,09,43,8.10
2020,07,09,09,44,8.10
2020,07,09,09,45,6.40
2020,07,09,09,46,9.60
2020,07,09,09,47,16.10
2020,07,09,09,48,8.10
2020,07,09,09,49,6.40
2020,07,09,09,50,11.30
2020,07,09,09,51,6.40
2020,07,09,09,52,11.30
2020,07,09,09,53,16.10
2020,07,09,09,54,9.60
2020,07,09,09,55,16.10
2020,07,09,09,56,8.10
2020,07,09,09,57,4.80
2020,07,09,09,58,4.80
2020,07,09,09,59,4.80
2020,07,09,10,00,3.20
2020,07,09,10,01,8.10
2020,07,09,10,02,8.10
2020,07,09,10,03,11.30
2020,07,09,10,04,14.50
2020,07,09,10,05,6.40
2020,07,09,10,06,6.40
2020,07,09,10,07,8.10
2020,07,09,10,08,6.40
2020,07,09,10,09,6.40
2020,07,09,10,10,11.30
2020,07,09,10,11,11.30
2020,07,09,10,12,14.50
2020,07,09,10,13,11.30
2020,07,09,10,14,4.80
2020,07,09,10,15,6.40
2020,07,09,10,16,14.50
2020,07,09,10,17,6.40
2020,07,09,10,18,6.40
2020,07,09,10,19,8.10
2020,07,09,10,20,9.60
2020,07,09,10,21,6.40
2020,07,09,10,22,14.50
2020,07,09,10,23,9.60
2020,07,09,10,24,6.40
2020,07,09,10,25,8.10
2020,07,09,10,26,8.10
2020,07,09,10,27,11.30
2020,07,09,10,28,11.30
2020,07,09,10,29,8.10
2020,07,09,10,30,8.10
2020,07,09,10,31,8.10
2020,07,09,10,32,12.90
2020,07,09,10,33,12.90
2020,07,09,10,34,6.40
2020,07,09,10,35,11.30
2020,07,09,10,36,3.20
2020,07,09,10,37,3.20
2020,07,09,10,38,14.50
2020,07,09,10,39,11.30
2020,07,09,10,40,16.10
2020,07,09,10,41,17.70
2020,07,09,10,42,6.40
2020,07,09,10,43,12.90
2020,07,09,10,44,8.10
2020,07,09,10,45,14.50
2020,07,09,10,46,6.40
2020,07,09,10,47,8.10
2020,07,09,10,48,11.30
2020,07,09,10,49,12.90
2020,07,09,10,50,6.40
2020,07,09,10,51,12.90
2020,07,09,10,52,11.30
2020,07,09,10,53,4.80
2020,07,09,10,54,12.90
2020,07,09,10,55,6.40
2020,07,09,10,56,6.40
2020,07,09,10,57,8.10
2020,07,09,10,58,11.30
2020,07,09,10,59,16.10
2020,07,09,11,00,8.10
2020,07,09,11,01,12.90
2020,07,09,11,02,16.10
2020,07,09,11,03,19.30
2020,07,09,11,04,16.10
2020,07,09,11,05,11.30
2020,07,09,11,06,17.70
2020,07,09,11,07,11.30
2020,07,09,11,08,11.30
2020,07,09,11,09,8.10
2020,07,09,11,10,9.60
2020,07,09,11,11,14.50
2020,07,09,11,12,16.10
2020,07,09,11,13,17.70
2020,07,09,11,14,12.90
2020,07,09,11,15,6.40
2020,07,09,11,16,4.80
2020,07,09,11,17,9.60
2020,07,09,11,18,9.60
2020,07,09,11,19,16.10
2020,07,09,11,20,6.40
2020,07,09,11,21,8.10
2020,07,09,11,22,14.50
2020,07,09,11,23,14.50
2020,07,09,11,24,8.10
2020,07,09,11,25,9.60
2020,07,09,11,26,6.40
2020,07,09,11,27,16.10
2020,07,09,11,28,11.30
2020,07,09,11,29,6.40
2020,07,09,11,30,19.30
2020,07,09,11,31,12.90
2020,07,09,11,32,19.30
2020,07,09,11,33,19.30
2020,07,09,11,34,19.30
2020,07,09,11,35,16.10
2020,07,09,11,36,14.50
2020,07,09,11,37,12.90
2020,07,09,11,38,9.60
2020,07,09,11,39,9.60
2020,07,09,11,40,9.60
2020,07,09,11,41,16.10
2020,07,09,11,42,16.10
2020,07,09,11,43,11.30
2020,07,09,11,44,12.90
2020,07,09,11,45,8.10
2020,07,09,11,46,9.60
2020,07,09,11,47,16.10
2020,07,09,11,48,12.90
2020,07,09,11,49,17.70
2020,07,09,11,50,14.50
2020,07,09,11,51,9.60
2020,07,09,11,52,12.90
2020,07,09,11,53,17.70
2020,07,09,11,54,20.90
2020,07,09,11,55,14.50
2020,07,09,11,56,16.10
2020,07,09,11,57,11.30
2020,07,09,11,58,14.50
2020,07,09,11,59,24.20
2020,07,09,12,00,16.10
2020,07,09,12,01,8.10
2020,07,09,12,02,9.60
2020,07,09,12,03,17.70
2020,07,09,12,04,14.50
2020,07,09,12,05,14.50
2020,07,09,12,06,14.50
2020,07,09,12,07,12.90
2020,07,09,12,08,16.10
2020,07,09,12,09,9.60
2020,07,09,12,10,14.50
2020,07,09,12,11,6.40
2020,07,09,12,12,8.10
2020,07,09,12,13,14.50
2020,07,09,12,14,8.10
2020,07,09,12,15,17.70
2020,07,09,12,16,19.30
2020,07,09,12,17,17.70
2020,07,09,12,18,12.90
2020,07,09,12,19,9.60
2020,07,09,12,20,14.50
2020,07,09,12,21,16.10
2020,07,09,12,22,16.10
2020,07,09,12,23,9.60
2020,07,09,12,24,16.10
2020,07,09,12,25,12.90
2020,07,09,12,26,12.90
2020,07,09,12,27,11.30
2020,07,09,12,28,12.90
2020,07,09,12,29,14.50
2020,07,09,12,30,9.60
2020,07,09,12,31,8.10
2020,07,09,12,32,11.30
2020,07,09,12,33,6.40
2020,07,09,12,34,8.10
2020,07,09,12,35,8.10
2020,07,09,12,36,12.90
2020,07,09,12,37,19.30
2020,07,09,12,38,17.70
2020,07,09,12,39,19.30
2020,07,09,12,40,11.30
2020,07,09,12,41,12.90
2020,07,09,12,42,8.10
2020,07,09,12,43,9.60
2020,07,09,12,44,4.80
2020,07,09,12,45,6.40
2020,07,09,12,46,8.10
2020,07,09,12,47,8.10
2020,07,09,12,48,14.50
2020,07,09,12,49,11.30
2020,07,09,12,50,6.40
2020,07,09,12,51,9.60
2020,07,09,12,52,4.80
2020,07,09,12,53,6.40
2020,07,09,12,54,9.60
2020,07,09,12,55,6.40
2020,07,09,12,56,4.80
2020,07,09,12,57,4.80
2020,07,09,12,58,14.50
2020,07,09,12,59,9.60
2020,07,09,13,00,11.30
2020,07,09,13,01,11.30
2020,07,09,13,02,9.60
2020,07,09,13,03,14.50
2020,07,09,13,04,6.40
2020,07,09,13,05,12.90
2020,07,09,13,06,6.40
2020,07,09,13,07,11.30
2020,07,09,13,08,9.60
2020,07,09,13,09,6.40
2020,07,09,13,10,14.50
2020,07,09,13,11,12.90
2020,07,09,13,12,17.70
2020,07,09,13,13,16.10
2020,07,09,13,14,14.50
2020,07,09,13,15,17.70
2020,07,09,13,16,12.90
2020,07,09,13,17,14.50
2020,07,09,13,18,14.50
2020,07,09,13,19,11.30
2020,07,09,13,20,8.10
2020,07,09,13,21,12.90
2020,07,09,13,22,19.30
2020,07,09,13,23,9.60
2020,07,09,13,24,14.50
2020,07,09,13,25,11.30
2020,07,09,13,26,9.60
2020,07,09,13,27,8.10
2020,07,09,13,28,6.40
2020,07,09,13,29,12.90
2020,07,09,13,30,11.30
2020,07,09,13,31,4.80
2020,07,09,13,32,14.50
2020,07,09,13,33,11.30
2020,07,09,13,34,12.90
2020,07,09,13,35,11.30
2020,07,09,13,36,11.30
2020,07,09,13,37,11.30
2020,07,09,13,38,14.50
2020,07,09,13,39,11.30
2020,07,09,13,40,8.10
2020,07,09,13,41,12.90
2020,07,09,13,42,16.10
2020,07,09,13,43,12.90
2020,07,09,13,44,14.50
2020,07,09,13,45,12.90
2020,07,09,13,46,8.10
2020,07,09,13,47,16.10
2020,07,09,13,48,9.60
2020,07,09,13,49,17.70
2020,07,09,13,50,20.90
2020,07,09,13,51,16.10
2020,07,09,13,52,16.10
2020,07,09,13,53,17.70
2020,07,09,13,54,20.90
2020,07,09,13,55,17.70
2020,07,09,13,56,24.20
2020,07,09,13,57,17.70
2020,07,09,13,58,14.50
2020,07,09,13,59,12.90
2020,07,09,14,00,16.10
2020,07,09,14,01,22.50
2020,07,09,14,02,16.10
2020,07,09,14,03,12.90
2020,07,09,14,04,17.70
2020,07,09,14,05,20.90
2020,07,09,14,06,14.50
2020,07,09,14,07,12.90
2020,07,09,14,08,14.50
2020,07,09,14,09,19.30
2020,07,09,14,10,27.40
2020,07,09,14,11,19.30
2020,07,09,14,12,17.70
2020,07,09,14,13,17.70
2020,07,09,14,14,19.30
2020,07,09,14,15,14.50
2020,07,09,14,16,12.90
2020,07,09,14,17,17.70
2020,07,09,14,18,16.10
2020,07,09,14,19,19.30
2020,07,09,14,20,17.70
2020,07,09,14,21,17.70
2020,07,09,14,22,17.70
2020,07,09,14,23,20.90
2020,07,09,14,24,16.10
2020,07,09,14,25,16.10
2020,07,09,14,26,17.70
2020,07,09,14,27,14.50
2020,07,09,14,28,22.50
2020,07,09,14,29,20.90
2020,07,09,14,30,20.90
2020,07,09,14,31,17.70
2020,07,09,14,32,16.10
2020,07,09,14,33,19.30
2020,07,09,14,34,19.30
2020,07,09,14,35,16.10
2020,07,09,14,36,16.10
2020,07,09,14,37,16.10
2020,07,09,14,38,17.70
2020,07,09,14,39,27.40
2020,07,09,14,40,20.90
2020,07,09,14,41,22.50
2020,07,09,14,42,25.70
2020,07,09,14,43,11.30
2020,07,09,14,44,17.70
2020,07,09,14,45,16.10
2020,07,09,14,46,17.70
2020,07,09,14,47,17.70
2020,07,09,14,48,22.50
2020,07,09,14,49,20.90
2020,07,09,14,50,20.90
2020,07,09,14,51,22.50
2020,07,09,14,52,24.20
2020,07,09,14,53,17.70
2020,07,09,14,54,12.90
2020,07,09,14,55,19.30
2020,07,09,14,56,14.50
2020,07,09,14,57,16.10
2020,07,09,14,58,17.70
2020,07,09,14,59,12.90
2020,07,09,15,00,14.50
2020,07,09,15,01,19.30
2020,07,09,15,02,20.90
2020,07,09,15,03,16.10
2020,07,09,15,04,16.10
2020,07,09,15,05,19.30
2020,07,09,15,06,20.90
2020,07,09,15,07,22.50
2020,07,09,15,08,22.50
2020,07,09,15,09,19.30
2020,07,09,15,10,17.70
2020,07,09,15,11,16.10
2020,07,09,15,12,19.30
2020,07,09,15,13,19.30
2020,07,09,15,14,17.70
2020,07,09,15,15,16.10
2020,07,09,15,16,20.90
2020,07,09,15,17,16.10
2020,07,09,15,18,17.70
2020,07,09,15,19,12.90
2020,07,09,15,20,20.90
2020,07,09,15,21,14.50
2020,07,09,15,22,14.50
2020,07,09,15,23,24.20
2020,07,09,15,24,20.90
2020,07,09,15,25,20.90
2020,07,09,15,26,14.50
2020,07,09,15,27,22.50
2020,07,09,15,28,17.70
2020,07,09,15,29,22.50
2020,07,09,15,30,22.50
2020,07,09,15,31,17.70
2020,07,09,15,32,20.90
2020,07,09,15,33,17.70
2020,07,09,15,34,16.10
2020,07,09,15,35,12.90
2020,07,09,15,36,14.50
2020,07,09,15,37,22.50
2020,07,09,15,38,14.50
2020,07,09,15,39,12.90
2020,07,09,15,40,14.50
2020,07,09,15,41,12.90
2020,07,09,15,42,12.90
2020,07,09,15,43,19.30
2020,07,09,15,44,14.50
2020,07,09,15,45,22.50
2020,07,09,15,46,20.90
2020,07,09,15,47,20.90
2020,07,09,15,48,22.50
2020,07,09,15,49,19.30
2020,07,09,15,50,19.30
2020,07,09,15,51,16.10
2020,07,09,15,52,16.10
2020,07,09,15,53,16.10
2020,07,09,15,54,17.70
2020,07,09,15,55,16.10
2020,07,09,15,56,16.10
2020,07,09,15,57,20.90
2020,07,09,15,58,19.30
2020,07,09,15,59,12.90
2020,07,09,16,00,16.10
2020,07,09,16,01,17.70
2020,07,09,16,02,17.70
2020,07,09,16,03,12.90
2020,07,09,16,04,12.90
2020,07,09,16,05,14.50
2020,07,09,16,06,9.60
2020,07,09,16,07,6.40
2020,07,09,16,08,9.60
2020,07,09,16,09,19.30
2020,07,09,16,10,14.50
2020,07,09,16,11,22.50
2020,07,09,16,12,14.50
2020,07,09,16,13,12.90
2020,07,09,16,14,16.10
2020,07,09,16,15,16.10
2020,07,09,16,16,12.90
2020,07,09,16,17,12.90
2020,07,09,16,18,14.50
2020,07,09,16,19,12.90
2020,07,09,16,20,11.30
2020,07,09,16,21,19.30
2020,07,09,16,22,14.50
2020,07,09,16,23,4.80
2020,07,09,16,24,17.70
2020,07,09,16,25,14.50
2020,07,09,16,26,6.40
2020,07,09,16,27,16.10
2020,07,09,16,28,11.30
2020,07,09,16,29,9.60
2020,07,09,16,30,16.10
2020,07,09,16,31,14.50
2020,07,09,16,32,11.30
2020,07,09,16,33,17.70
2020,07,09,16,34,14.50
2020,07,09,16,35,17.70
2020,07,09,16,36,12.90
2020,07,09,16,37,6.40
2020,07,09,16,38,17.70
2020,07,09,16,39,12.90
2020,07,09,16,40,11.30
2020,07,09,16,41,11.30
2020,07,09,16,42,8.10
2020,07,09,16,43,19.30
2020,07,09,16,44,12.90
2020,07,09,16,45,16.10
2020,07,09,16,46,12.90
2020,07,09,16,47,17.70
2020,07,09,16,48,8.10
2020,07,09,16,49,9.60
2020,07,09,16,50,4.80
2020,07,09,16,51,3.20
2020,07,09,16,52,8.10
2020,07,09,16,53,8.10
2020,07,09,16,54,3.20
2020,07,09,16,55,9.60
2020,07,09,16,56,9.60
2020,07,09,16,57,6.40
2020,07,09,16,58,12.90
2020,07,09,16,59,12.90
2020,07,09,17,00,11.30
2020,07,09,17,01,14.50
2020,07,09,17,02,12.90
2020,07,09,17,03,16.10
2020,07,09,17,04,11.30
2020,07,09,17,05,14.50
2020,07,09,17,06,4.80
2020,07,09,17,07,14.50
2020,07,09,17,08,12.90
2020,07,09,17,09,9.60
2020,07,09,17,10,11.30
2020,07,09,17,11,11.30
2020,07,09,17,12,11.30
2020,07,09,17,13,6.40
2020,07,09,17,14,6.40
2020,07,09,17,15,11.30
2020,07,09,17,16,11.30
2020,07,09,17,17,6.40
2020,07,09,17,18,6.40
2020,07,09,17,19,12.90
2020,07,09,17,20,16.10
2020,07,09,17,21,9.60
2020,07,09,17,22,12.90
2020,07,09,17,23,4.80
2020,07,09,17,24,11.30
2020,07,09,17,25,8.10
2020,07,09,17,26,4.80
2020,07,09,17,27,4.80
2020,07,09,17,28,4.80
2020,07,09,17,29,3.20
2020,07,09,17,30,3.20
2020,07,09,17,31,1.60
2020,07,09,17,32,4.80
2020,07,09,17,33,6.40
2020,07,09,17,34,4.80
2020,07,09,17,35,9.60
2020,07,09,17,36,8.10
2020,07,09,17,37,6.40
2020,07,09,17,38,6.40
2020,07,09,17,39,6.40
2020,07,09,17,40,4.80
2020,07,09,17,41,6.40
2020,07,09,17,42,4.80
2020,07,09,17,43,4.80
2020,07,09,17,44,4.80
2020,07,09,17,45,3.20
2020,07,09,17,46,3.20
2020,07,09,17,47,3.20
2020,07,09,17,48,1.60
2020,07,09,17,49,1.60
2020,07,09,17,56,3.20
2020,07,09,17,57,6.40
2020,07,09,17,58,6.40
2020,07,09,17,59,4.80
2020,07,09,18,00,6.40
2020,07,09,18,01,6.40
2020,07,09,18,02,6.40
2020,07,09,18,03,8.10
2020,07,09,18,04,6.40
2020,07,09,18,05,4.80
2020,07,09,18,06,8.10
2020,07,09,18,07,12.90
2020,07,09,18,08,12.90
2020,07,09,18,09,6.40
2020,07,09,18,10,4.80
2020,07,09,18,11,4.80
2020,07,09,18,12,6.40
2020,07,09,18,13,4.80
2020,07,09,18,14,1.60
2020,07,09,18,15,1.60
2020,07,09,18,17,1.60
2020,07,09,18,18,6.40
2020,07,09,18,19,6.40
2020,07,09,18,20,11.30
2020,07,09,18,21,9.60
2020,07,09,18,22,14.50
2020,07,09,18,23,9.60
2020,07,09,18,24,6.40
2020,07,09,18,25,6.40
2020,07,09,18,26,9.60
2020,07,09,18,27,9.60
2020,07,09,18,28,3.20
2020,07,09,18,30,1.60
2020,07,09,18,31,6.40
2020,07,09,18,32,6.40
2020,07,09,18,33,3.20
2020,07,09,18,34,4.80
2020,07,09,18,35,1.60
2020,07,09,18,36,4.80
2020,07,09,18,37,4.80
2020,07,09,18,38,3.20
2020,07,09,18,39,6.40
2020,07,09,18,40,6.40
2020,07,09,18,41,6.40
2020,07,09,18,42,12.90
2020,07,09,18,43,11.30
2020,07,09,18,44,8.10
2020,07,09,18,45,8.10
2020,07,09,18,46,8.10
2020,07,09,18,47,6.40
2020,07,09,18,48,8.10
2020,07,09,18,49,6.40
2020,07,09,18,50,4.80
2020,07,09,18,51,4.80
2020,07,09,18,57,6.40
2020,07,09,18,58,4.80
2020,07,09,18,59,4.80
2020,07,09,19,00,3.20
2020,07,09,19,01,4.80
2020,07,09,19,02,6.40
2020,07,09,19,03,4.80
2020,07,09,19,04,1.60
2020,07,09,19,12,6.40
2020,07,09,19,13,4.80
2020,07,09,19,14,1.60
2020,07,09,19,15,1.60
2020,07,09,19,17,1.60
2020,07,09,19,19,1.60
2020,07,09,19,54,1.60
2020,07,09,20,00,6.40
2020,07,09,20,01,3.20
2020,07,09,20,02,3.20
2020,07,09,20,04,4.80
2020,07,09,20,05,4.80
2020,07,09,20,06,3.20
2020,07,09,20,10,3.20
2020,07,09,20,11,3.20
2020,07,09,20,12,1.60
2020,07,09,20,13,1.60
2020,07,09,20,14,3.20
2020,07,09,20,15,6.40
2020,07,09,20,16,3.20
2020,07,09,20,17,1.60
2020,07,09,20,18,1.60
2020,07,09,20,19,3.20
2020,07,09,20,20,3.20
2020,07,09,20,21,3.20
2020,07,09,20,22,3.20
2020,07,09,20,24,3.20
2020,07,09,20,28,4.80
2020,07,09,20,29,3.20
2020,07,09,20,30,4.80
2020,07,09,20,31,1.60
2020,07,09,20,32,3.20
2020,07,09,20,33,1.60
